星链-1066 (STARLINK-1066 )

导读

STARLINK-1066是美国SpaceX星链星座的卫星,于2020年1月7日发射入轨,属于星链早期部署批次,旨在为全球提供低延迟、高速率的卫星互联网服务。作为星链星座组网节点之一,该卫星运行于近地轨道,参与构建覆盖全球的天基通信网络,支撑星链全球互联网服务的规模化部署。

Basic Information
目录编号:
44954
目录名称:
STARLINK-1066
国际标识:
2020-001AS
轨道中心:
EARTH
卫星名称:
星链-1066
卫星全名:
星链-1066 (STARLINK-1066 )
卫星状态:
已陨落 最后检测时间 2025-09-23
发射日期:
2020-01-07 UTC
国别 :
美国 (US)
星等 :
--
Orbit Information
数据来源 国际轨道数据
星历时间: 2025-09-23T10:51:00+0800
轨道信息已过期262天
半长轴: 6527.838km
偏心率: 0.0004579
轨道倾角: 53.028°
近地点辐角 247.397°
升交点赤经 274.409°
平近点角 112.660°
近地点: 146.713km
远地点: 152.693km
周期: 87.481分钟
每日圈数: 16.460718
Detailed Information
固有亮度:
5
最大亮度:
2.5
卫星平台:
Starlink V1.0
覆盖范围:
全球
运营商:
太空探索技术公司
运营商所在国:
美国
制造商(研发单位):
太空探索技术公司
制造商所在国:
美国
使用方式:
暂无
Satellite Introduction
星链(Starlink)计划是由太空探索技术公司(SpaceX)提出的一个巨型低轨卫星互联网星座项目,计划在2019年至2024年间在太空搭建由约1.2万颗卫星组成的“星链”网络,其中1584颗将部署在地球上空550千米处的近地轨道,并从2020年开始工作。该卫星仍在工作。